Time,TemperatureF,DewpointF,PressureIn,WindDirection,WindDirectionDegrees,WindSpeedMPH,WindSpeedGustMPH,Humidity,HourlyPrecipIn,Conditions,Clouds,dailyrainin,SoftwareType,DateUTC
2013-01-15 00:04:00,44.0,-99.9,30.21,NNW,337,11.0,15.0,-999,-99.99,,,-99.99,,2013-01-15 05:04:00,
2013-01-15 00:12:00,44.0,-99.9,30.21,NNW,343,10.0,16.0,-999,-99.99,,,-99.99,,2013-01-15 05:12:00,
2013-01-15 00:22:00,43.0,-99.9,30.22,North,349,8.0,12.0,-999,-99.99,,,-99.99,,2013-01-15 05:22:00,
2013-01-15 00:33:00,43.0,-99.9,30.22,NNW,343,9.0,12.0,-999,-99.99,,,-99.99,,2013-01-15 05:33:00,
2013-01-15 00:43:00,43.0,-99.9,30.23,NNW,342,11.0,15.0,-999,-99.99,,,-99.99,,2013-01-15 05:43:00,
2013-01-15 00:53:00,43.0,-99.9,30.23,NNW,341,12.0,17.0,-999,-99.99,,,-99.99,,2013-01-15 05:53:00,
2013-01-15 01:03:00,43.0,-99.9,30.24,NNW,341,11.0,19.0,-999,-99.99,,,-99.99,,2013-01-15 06:03:00,
2013-01-15 01:12:00,43.0,-99.9,30.23,NNW,345,12.0,16.0,-999,-99.99,,,-99.99,,2013-01-15 06:12:00,
2013-01-15 01:22:00,42.0,-99.9,30.23,NNW,348,10.0,17.0,-999,-99.99,,,-99.99,,2013-01-15 06:22:00,
2013-01-15 01:33:00,42.0,-99.9,30.23,North,351,12.0,15.0,-999,-99.99,,,-99.99,,2013-01-15 06:33:00,
2013-01-15 01:43:00,42.0,-99.9,30.24,North,353,9.0,15.0,-999,-99.99,,,-99.99,,2013-01-15 06:43:00,
2013-01-15 01:53:00,42.0,-99.9,30.26,NNW,344,8.0,12.0,-999,-99.99,,,-99.99,,2013-01-15 06:53:00,
2013-01-15 02:02:00,41.0,-99.9,30.25,North,353,9.0,11.0,-999,-99.99,,,-99.99,,2013-01-15 07:02:00,
2013-01-15 02:12:00,41.0,-99.9,30.25,NNW,348,7.0,12.0,-999,-99.99,,,-99.99,,2013-01-15 07:12:00,
2013-01-15 02:22:00,41.0,-99.9,30.25,North,349,7.0,12.0,-999,-99.99,,,-99.99,,2013-01-15 07:22:00,
2013-01-15 02:33:00,41.0,-99.9,30.26,North,350,7.0,12.0,-999,-99.99,,,-99.99,,2013-01-15 07:33:00,
2013-01-15 02:43:00,41.0,-99.9,30.26,North,353,11.0,12.0,-999,-99.99,,,-99.99,,2013-01-15 07:43:00,
2013-01-15 02:53:00,41.0,-99.9,30.24,North,358,10.0,14.0,-999,-99.99,,,-99.99,,2013-01-15 07:53:00,
2013-01-15 03:02:00,41.0,-99.9,30.23,North,1,9.0,12.0,-999,-99.99,,,-99.99,,2013-01-15 08:02:00,
2013-01-15 03:12:00,41.0,-99.9,30.23,North,355,8.0,13.0,-999,-99.99,,,-99.99,,2013-01-15 08:12:00,
2013-01-15 03:22:00,40.0,-99.9,30.22,North,4,7.0,10.0,-999,-99.99,,,-99.99,,2013-01-15 08:22:00,
2013-01-15 03:33:00,40.0,-99.9,30.22,North,5,6.0,10.0,-999,-99.99,,,-99.99,,2013-01-15 08:33:00,
2013-01-15 03:43:00,40.0,-99.9,30.22,North,4,8.0,10.0,-999,-99.99,,,-99.99,,2013-01-15 08:43:00,
2013-01-15 03:53:00,40.0,-99.9,30.22,North,3,6.0,9.0,-999,-99.99,,,-99.99,,2013-01-15 08:53:00,
2013-01-15 04:02:00,40.0,-99.9,30.21,North,8,5.0,7.0,-999,-99.99,,,-99.99,,2013-01-15 09:02:00,
2013-01-15 04:12:00,40.0,-99.9,30.22,NNE,12,4.0,8.0,-999,-99.99,,,-99.99,,2013-01-15 09:12:00,
2013-01-15 04:22:00,40.0,-99.9,30.22,North,4,5.0,7.0,-999,-99.99,,,-99.99,,2013-01-15 09:22:00,
2013-01-15 04:33:00,41.0,-99.9,30.21,NNE,24,4.0,7.0,-999,-99.99,,,-99.99,,2013-01-15 09:33:00,
2013-01-15 04:43:00,41.0,-99.9,30.21,NNE,12,4.0,7.0,-999,-99.99,,,-99.99,,2013-01-15 09:43:00,
2013-01-15 04:52:00,40.0,-99.9,30.19,NE,39,7.0,10.0,-999,-99.99,,,-99.99,,2013-01-15 09:52:00,
2013-01-15 05:02:00,41.0,-99.9,30.21,North,3,7.0,9.0,-999,-99.99,,,-99.99,,2013-01-15 10:02:00,
2013-01-15 05:12:00,40.0,-99.9,30.22,North,355,8.0,11.0,-999,-99.99,,,-99.99,,2013-01-15 10:12:00,
2013-01-15 05:22:00,39.0,-99.9,30.21,North,352,9.0,13.0,-999,-99.99,,,-99.99,,2013-01-15 10:22:00,
2013-01-15 05:33:00,39.0,-99.9,30.21,North,4,11.0,15.0,-999,-99.99,,,-99.99,,2013-01-15 10:33:00,
2013-01-15 05:42:00,39.0,-99.9,30.21,North,3,12.0,15.0,-999,-99.99,,,-99.99,,2013-01-15 10:42:00,
2013-01-15 05:52:00,39.0,-99.9,30.21,North,3,10.0,18.0,-999,-99.99,,,-99.99,,2013-01-15 10:52:00,
2013-01-15 06:03:00,39.0,-99.9,30.20,NNE,13,7.0,13.0,-999,-99.99,,,-99.99,,2013-01-15 11:03:00,
2013-01-15 06:12:00,39.0,-99.9,30.20,NNE,17,9.0,12.0,-999,-99.99,,,-99.99,,2013-01-15 11:12:00,
2013-01-15 06:23:00,39.0,-99.9,30.20,NNE,22,7.0,13.0,-999,-99.99,,,-99.99,,2013-01-15 11:23:00,
2013-01-15 06:33:00,40.0,-99.9,30.20,NNE,18,4.0,11.0,-999,-99.99,,,-99.99,,2013-01-15 11:33:00,
2013-01-15 06:43:00,40.0,-99.9,30.20,NNE,21,5.0,9.0,-999,-99.99,,,-99.99,,2013-01-15 11:43:00,
2013-01-15 06:53:00,40.0,-99.9,30.21,North,4,7.0,9.0,-999,-99.99,,,-99.99,,2013-01-15 11:53:00,
2013-01-15 07:03:00,40.0,-99.9,30.21,NNE,15,7.0,11.0,-999,-99.99,,,-99.99,,2013-01-15 12:03:00,
2013-01-15 07:12:00,40.0,-99.9,30.24,North,358,7.0,10.0,-999,-99.99,,,-99.99,,2013-01-15 12:12:00,
2013-01-15 07:23:00,40.0,-99.9,30.23,North,4,6.0,11.0,-999,-99.99,,,-99.99,,2013-01-15 12:23:00,
2013-01-15 07:33:00,40.0,-99.9,30.23,North,3,5.0,9.0,-999,-99.99,,,-99.99,,2013-01-15 12:33:00,
2013-01-15 07:43:00,40.0,-99.9,30.23,North,9,4.0,6.0,-999,-99.99,,,-99.99,,2013-01-15 12:43:00,
2013-01-15 07:53:00,40.0,-99.9,30.24,North,2,4.0,6.0,-999,-99.99,,,-99.99,,2013-01-15 12:53:00,
2013-01-15 08:03:00,40.0,-99.9,30.24,North,5,5.0,7.0,-999,-99.99,,,-99.99,,2013-01-15 13:03:00,
2013-01-15 08:13:00,40.0,-99.9,30.25,North,354,5.0,8.0,-999,-99.99,,,-99.99,,2013-01-15 13:13:00,
2013-01-15 08:23:00,40.0,-99.9,30.25,North,353,5.0,7.0,-999,-99.99,,,-99.99,,2013-01-15 13:23:00,
2013-01-15 08:33:00,40.0,-99.9,30.25,NNW,345,5.0,7.0,-999,-99.99,,,-99.99,,2013-01-15 13:33:00,
2013-01-15 08:43:00,40.0,-99.9,30.26,NNW,343,5.0,8.0,-999,-99.99,,,-99.99,,2013-01-15 13:43:00,
2013-01-15 08:53:00,40.0,-99.9,30.27,NNW,340,8.0,10.0,-999,-99.99,,,-99.99,,2013-01-15 13:53:00,
2013-01-15 09:03:00,40.0,-99.9,30.28,NNW,331,8.0,11.0,-999,-99.99,,,-99.99,,2013-01-15 14:03:00,
2013-01-15 09:13:00,40.0,-99.9,30.27,NNW,344,5.0,12.0,-999,-99.99,,,-99.99,,2013-01-15 14:13:00,
2013-01-15 09:23:00,40.0,-99.9,30.26,North,352,8.0,11.0,-999,-99.99,,,-99.99,,2013-01-15 14:23:00,
2013-01-15 09:33:00,40.0,-99.9,30.27,NNW,343,7.0,10.0,-999,-99.99,,,-99.99,,2013-01-15 14:33:00,
2013-01-15 09:43:00,40.0,-99.9,30.27,NNW,344,6.0,10.0,-999,-99.99,,,-99.99,,2013-01-15 14:43:00,
2013-01-15 09:54:00,41.0,-99.9,30.27,North,351,6.0,10.0,-999,-99.99,,,-99.99,,2013-01-15 14:54:00,
2013-01-15 10:03:00,41.0,-99.9,30.27,NNW,341,7.0,9.0,-999,-99.99,,,-99.99,,2013-01-15 15:03:00,
2013-01-15 10:13:00,41.0,-99.9,30.27,NNW,340,6.0,8.0,-999,-99.99,,,-99.99,,2013-01-15 15:13:00,
2013-01-15 10:23:00,41.0,-99.9,30.27,NNW,339,7.0,9.0,-999,-99.99,,,-99.99,,2013-01-15 15:23:00,
2013-01-15 10:33:00,41.0,-99.9,30.27,NNW,342,6.0,11.0,-999,-99.99,,,-99.99,,2013-01-15 15:33:00,
2013-01-15 10:43:00,41.0,-99.9,30.27,NNW,345,5.0,8.0,-999,-99.99,,,-99.99,,2013-01-15 15:43:00,
2013-01-15 10:53:00,41.0,-99.9,30.27,NNW,337,6.0,9.0,-999,-99.99,,,-99.99,,2013-01-15 15:53:00,
2013-01-15 11:03:00,41.0,-99.9,30.27,NNW,333,6.0,11.0,-999,-99.99,,,-99.99,,2013-01-15 16:03:00,
2013-01-15 11:12:00,41.0,-99.9,30.27,NNW,334,6.0,9.0,-999,-99.99,,,-99.99,,2013-01-15 16:12:00,
2013-01-15 11:23:00,41.0,-99.9,30.26,NNW,337,6.0,9.0,-999,-99.99,,,-99.99,,2013-01-15 16:23:00,
2013-01-15 11:34:00,41.0,-99.9,30.26,NNW,334,5.0,10.0,-999,-99.99,,,-99.99,,2013-01-15 16:34:00,
2013-01-15 11:43:00,41.0,-99.9,30.26,NNW,327,7.0,9.0,-999,-99.99,,,-99.99,,2013-01-15 16:43:00,
2013-01-15 11:53:00,41.0,-99.9,30.26,NNW,332,5.0,8.0,-999,-99.99,,,-99.99,,2013-01-15 16:53:00,
2013-01-15 12:04:00,40.0,-99.9,30.25,NNW,330,5.0,9.0,-999,-99.99,,,-99.99,,2013-01-15 17:04:00,
2013-01-15 12:13:00,40.0,-99.9,30.25,NNW,338,7.0,9.0,-999,-99.99,,,-99.99,,2013-01-15 17:13:00,
2013-01-15 12:23:00,40.0,-99.9,30.24,NNW,340,6.0,9.0,-999,-99.99,,,-99.99,,2013-01-15 17:23:00,
2013-01-15 12:33:00,40.0,-99.9,30.24,NNW,336,6.0,9.0,-999,-99.99,,,-99.99,,2013-01-15 17:33:00,
2013-01-15 12:43:00,41.0,-99.9,30.24,NNW,341,6.0,8.0,-999,-99.99,,,-99.99,,2013-01-15 17:43:00,
2013-01-15 12:53:00,40.0,-99.9,30.24,NNW,337,6.0,10.0,-999,-99.99,,,-99.99,,2013-01-15 17:53:00,
2013-01-15 13:03:00,40.0,-99.9,30.24,NNW,334,5.0,9.0,-999,-99.99,,,-99.99,,2013-01-15 18:03:00,
2013-01-15 13:13:00,40.0,-99.9,30.24,NNW,341,5.0,8.0,-999,-99.99,,,-99.99,,2013-01-15 18:13:00,
2013-01-15 13:24:00,40.0,-99.9,30.24,NNW,334,7.0,10.0,-999,-99.99,,,-99.99,,2013-01-15 18:24:00,
2013-01-15 13:34:00,40.0,-99.9,30.24,NNW,329,5.0,8.0,-999,-99.99,,,-99.99,,2013-01-15 18:34:00,
2013-01-15 13:43:00,40.0,-99.9,30.23,North,351,6.0,9.0,-999,-99.99,,,-99.99,,2013-01-15 18:43:00,
2013-01-15 13:54:00,41.0,-99.9,30.24,NNW,344,4.0,9.0,-999,-99.99,,,-99.99,,2013-01-15 18:54:00,
2013-01-15 14:03:00,41.0,-99.9,30.23,NNW,341,4.0,7.0,-999,-99.99,,,-99.99,,2013-01-15 19:03:00,
2013-01-15 14:13:00,41.0,-99.9,30.23,NNW,348,4.0,6.0,-999,-99.99,,,-99.99,,2013-01-15 19:13:00,
2013-01-15 14:23:00,41.0,-99.9,30.23,NNW,343,5.0,6.0,-999,-99.99,,,-99.99,,2013-01-15 19:23:00,
2013-01-15 14:33:00,41.0,-99.9,30.24,NNW,341,6.0,8.0,-999,-99.99,,,-99.99,,2013-01-15 19:33:00,
2013-01-15 14:43:00,41.0,-99.9,30.24,NNW,341,4.0,8.0,-999,-99.99,,,-99.99,,2013-01-15 19:43:00,
2013-01-15 14:53:00,41.0,-99.9,30.24,NNW,340,5.0,7.0,-999,-99.99,,,-99.99,,2013-01-15 19:53:00,
2013-01-15 15:04:00,41.0,-99.9,30.23,NNW,344,3.0,7.0,-999,-99.99,,,-99.99,,2013-01-15 20:04:00,
2013-01-15 15:12:00,41.0,-99.9,30.24,NNW,338,5.0,6.0,-999,-99.99,,,-99.99,,2013-01-15 20:12:00,
2013-01-15 15:23:00,41.0,-99.9,30.24,NNW,330,5.0,8.0,-999,-99.99,,,-99.99,,2013-01-15 20:23:00,
2013-01-15 15:33:00,41.0,-99.9,30.24,NNW,345,3.0,7.0,-999,-99.99,,,-99.99,,2013-01-15 20:33:00,
2013-01-15 15:44:00,41.0,-99.9,30.24,NNW,348,4.0,5.0,-999,-99.99,,,-99.99,,2013-01-15 20:44:00,
2013-01-15 15:53:00,41.0,-99.9,30.24,NNW,346,4.0,7.0,-999,-99.99,,,-99.99,,2013-01-15 20:53:00,
2013-01-15 16:03:00,41.0,-99.9,30.23,North,-999,3.0,6.0,-999,-99.99,,,-99.99,,2013-01-15 21:03:00,
2013-01-15 16:13:00,41.0,-99.9,30.24,NNW,339,4.0,5.0,-999,-99.99,,,-99.99,,2013-01-15 21:13:00,
2013-01-15 16:23:00,41.0,-99.9,30.24,NNW,337,3.0,5.0,-999,-99.99,,,-99.99,,2013-01-15 21:23:00,
2013-01-15 16:34:00,41.0,-99.9,30.24,NNW,334,4.0,6.0,-999,-99.99,,,-99.99,,2013-01-15 21:34:00,
2013-01-15 16:43:00,41.0,-99.9,30.24,NNW,347,1.0,5.0,-999,-99.99,,,-99.99,,2013-01-15 21:43:00,
2013-01-15 16:53:00,41.0,-99.9,30.23,NW,326,2.0,2.0,-999,-99.99,,,-99.99,,2013-01-15 21:53:00,
2013-01-15 17:03:00,41.0,-99.9,30.22,NNE,17,0.0,1.0,-999,-99.99,,,-99.99,,2013-01-15 22:03:00,
2013-01-15 17:13:00,41.0,-99.9,30.21,NE,47,1.0,1.0,-999,-99.99,,,-99.99,,2013-01-15 22:13:00,
2013-01-15 17:23:00,41.0,-99.9,30.22,NW,318,1.0,2.0,-999,-99.99,,,-99.99,,2013-01-15 22:23:00,
2013-01-15 17:33:00,41.0,-99.9,30.23,NW,324,2.0,4.0,-999,-99.99,,,-99.99,,2013-01-15 22:33:00,
2013-01-15 17:43:00,41.0,-99.9,30.22,NW,312,2.0,3.0,-999,-99.99,,,-99.99,,2013-01-15 22:43:00,
2013-01-15 17:53:00,41.0,-99.9,30.23,NW,324,4.0,5.0,-999,-99.99,,,-99.99,,2013-01-15 22:53:00,
2013-01-15 18:03:00,41.0,-99.9,30.23,NNW,331,4.0,7.0,-999,-99.99,,,-99.99,,2013-01-15 23:03:00,
2013-01-15 18:13:00,41.0,-99.9,30.24,NNW,327,5.0,6.0,-999,-99.99,,,-99.99,,2013-01-15 23:13:00,
2013-01-15 18:23:00,41.0,-99.9,30.24,NW,326,5.0,8.0,-999,-99.99,,,-99.99,,2013-01-15 23:23:00,
2013-01-15 18:33:00,41.0,-99.9,30.25,NNW,337,7.0,11.0,-999,-99.99,,,-99.99,,2013-01-15 23:33:00,
2013-01-15 18:43:00,41.0,-99.9,30.25,NNW,339,6.0,8.0,-999,-99.99,,,-99.99,,2013-01-15 23:43:00,
2013-01-15 18:53:00,41.0,-99.9,30.25,NNW,340,6.0,8.0,-999,-99.99,,,-99.99,,2013-01-15 23:53:00,
2013-01-15 19:03:00,41.0,-99.9,30.25,NNW,334,4.0,9.0,-999,-99.99,,,-99.99,,2013-01-16 00:03:00,
2013-01-15 19:13:00,41.0,-99.9,30.25,NNW,337,4.0,7.0,-999,-99.99,,,-99.99,,2013-01-16 00:13:00,
2013-01-15 19:23:00,41.0,-99.9,30.24,NNW,348,4.0,8.0,-999,-99.99,,,-99.99,,2013-01-16 00:23:00,
2013-01-15 19:33:00,41.0,-99.9,30.24,NNW,339,5.0,7.0,-999,-99.99,,,-99.99,,2013-01-16 00:33:00,
2013-01-15 19:43:00,41.0,-99.9,30.24,NNW,344,4.0,7.0,-999,-99.99,,,-99.99,,2013-01-16 00:43:00,
2013-01-15 19:53:00,41.0,-99.9,30.24,North,352,4.0,7.0,-999,-99.99,,,-99.99,,2013-01-16 00:53:00,
2013-01-15 20:03:00,41.0,-99.9,30.23,NNW,342,3.0,4.0,-999,-99.99,,,-99.99,,2013-01-16 01:03:00,
2013-01-15 20:12:00,41.0,-99.9,30.23,North,351,6.0,8.0,-999,-99.99,,,-99.99,,2013-01-16 01:12:00,
2013-01-15 20:23:00,41.0,-99.9,30.22,North,356,7.0,9.0,-999,-99.99,,,-99.99,,2013-01-16 01:23:00,
2013-01-15 20:33:00,41.0,-99.9,30.22,North,3,8.0,9.0,-999,-99.99,,,-99.99,,2013-01-16 01:33:00,
2013-01-15 20:43:00,41.0,-99.9,30.22,North,-999,8.0,11.0,-999,-99.99,,,-99.99,,2013-01-16 01:43:00,
2013-01-15 20:53:00,41.0,-99.9,30.23,North,359,8.0,11.0,-999,-99.99,,,-99.99,,2013-01-16 01:53:00,
2013-01-15 21:03:00,41.0,-99.9,30.24,North,353,8.0,12.0,-999,-99.99,,,-99.99,,2013-01-16 02:03:00,
2013-01-15 21:12:00,41.0,-99.9,30.25,North,351,8.0,12.0,-999,-99.99,,,-99.99,,2013-01-16 02:12:00,
2013-01-15 21:23:00,41.0,-99.9,30.25,North,352,7.0,11.0,-999,-99.99,,,-99.99,,2013-01-16 02:23:00,
2013-01-15 21:33:00,41.0,-99.9,30.24,North,2,7.0,12.0,-999,-99.99,,,-99.99,,2013-01-16 02:33:00,
2013-01-15 21:43:00,41.0,-99.9,30.24,North,2,8.0,13.0,-999,-99.99,,,-99.99,,2013-01-16 02:43:00,
2013-01-15 21:53:00,41.0,-99.9,30.24,North,1,7.0,11.0,-999,-99.99,,,-99.99,,2013-01-16 02:53:00,
2013-01-15 22:03:00,41.0,-99.9,30.24,North,1,6.0,9.0,-999,-99.99,,,-99.99,,2013-01-16 03:03:00,
2013-01-15 22:12:00,41.0,-99.9,30.23,North,3,6.0,8.0,-999,-99.99,,,-99.99,,2013-01-16 03:12:00,
2013-01-15 22:23:00,41.0,-99.9,30.22,North,3,7.0,11.0,-999,-99.99,,,-99.99,,2013-01-16 03:23:00,
2013-01-15 22:33:00,41.0,-99.9,30.24,North,1,8.0,10.0,-999,-99.99,,,-99.99,,2013-01-16 03:33:00,
2013-01-15 22:43:00,41.0,-99.9,30.23,North,10,6.0,10.0,-999,-99.99,,,-99.99,,2013-01-16 03:43:00,
2013-01-15 22:53:00,41.0,-99.9,30.24,North,4,5.0,9.0,-999,-99.99,,,-99.99,,2013-01-16 03:53:00,
2013-01-15 23:02:00,41.0,-99.9,30.24,North,349,4.0,8.0,-999,-99.99,,,-99.99,,2013-01-16 04:02:00,
2013-01-15 23:12:00,41.0,-99.9,30.24,North,1,5.0,7.0,-999,-99.99,,,-99.99,,2013-01-16 04:12:00,
2013-01-15 23:22:00,41.0,-99.9,30.23,North,4,5.0,8.0,-999,-99.99,,,-99.99,,2013-01-16 04:22:00,
2013-01-15 23:33:00,41.0,-99.9,30.23,North,5,5.0,6.0,-999,-99.99,,,-99.99,,2013-01-16 04:33:00,
2013-01-15 23:42:00,40.0,-99.9,30.22,North,2,6.0,8.0,-999,-99.99,,,-99.99,,2013-01-16 04:42:00,
2013-01-15 23:53:00,40.0,-99.9,30.22,North,5,5.0,8.0,-999,-99.99,,,-99.99,,2013-01-16 04:53:00,